• In Hungary
  • List of Countries
  • For 7 days
  • Water Temperature
  • Satellite Maps
  • Weather Map
  • News
  • Weather Widgets
  • user-avatar
    Login

    Hourly Weather Philadelphia

    Today, 21 October, Saturday

    Time Temperature Precipitation Wind Pressure Humidity
    00:00 +16°C° 0 mm 1 mps 766 mmHg 54%
    01:00 +16°C° 0 mm 1 mps 767 mmHg 51%
    02:00 +15°C° 0 mm 1 mps 767 mmHg 50%
    03:00 +15°C° 0 mm 1 mps 767 mmHg 50%
    04:00 +15°C° 0 mm 1 mps 767 mmHg 49%
    05:00 +15°C° 0 mm 1 mps 767 mmHg 49%
    06:00 +15°C° 0 mm 1 mps 768 mmHg 49%
    07:00 +15°C° 0 mm 1 mps 769 mmHg 48%
    08:00 +18°C° 0 mm 1 mps 769 mmHg 42%
    09:00 +19°C° 0 mm 0 mps 769 mmHg 37%
    10:00 +21°C° 0 mm 0 mps 769 mmHg 31%
    11:00 +23°C° 0 mm 0 mps 769 mmHg 29%
    12:00 +26°C° 0 mm 1 mps 769 mmHg 26%
    13:00 +27°C° 0 mm 1 mps 769 mmHg 24%
    14:00 +26°C° 0 mm 1 mps 769 mmHg 27%
    15:00 +26°C° 0 mm 1 mps 768 mmHg 29%
    16:00 +25°C° 0 mm 1 mps 768 mmHg 32%
    17:00 +24°C° 0 mm 1 mps 769 mmHg 36%
    18:00 +22°C° 0 mm 1 mps 769 mmHg 39%
    19:00 +20°C° 0 mm 1 mps 770 mmHg 43%
    20:00 +19°C° 0 mm 1 mps 770 mmHg 45%
    21:00 +19°C° 0 mm 1 mps 770 mmHg 46%
    22:00 +18°C° 0 mm 1 mps 770 mmHg 48%
    23:00 +18°C° 0 mm 1 mps 770 mmHg 49%

    Tomorrow, 22 October, Sunday

    Time Temperature Precipitation Wind Pressure Humidity
    00:00 +15°C° 0 mm 0 mps 770 mmHg 50%
    01:00 +15°C° 0 mm 0 mps 770 mmHg 51%
    02:00 +14°C° 0 mm 0 mps 770 mmHg 52%
    03:00 +14°C° 0 mm 0 mps 770 mmHg 53%
    04:00 +14°C° 0 mm 0 mps 770 mmHg 54%
    05:00 +14°C° 0 mm 0 mps 770 mmHg 55%
    06:00 +14°C° 0 mm 0 mps 770 mmHg 56%
    07:00 +14°C° 0 mm 0 mps 771 mmHg 57%
    08:00 +16°C° 0 mm 0 mps 771 mmHg 52%
    09:00 +20°C° 0 mm 1 mps 771 mmHg 47%
    10:00 +23°C° 0 mm 1 mps 771 mmHg 41%
    11:00 +24°C° 0 mm 2 mps 771 mmHg 40%
    12:00 +25°C° 0 mm 2 mps 770 mmHg 39%
    13:00 +26°C° 0 mm 2 mps 770 mmHg 38%
    14:00 +25°C° 0 mm 3 mps 770 mmHg 42%
    15:00 +25°C° 0 mm 3 mps 769 mmHg 46%
    16:00 +24°C° 0 mm 3 mps 769 mmHg 51%
    17:00 +22°C° 0 mm 3 mps 769 mmHg 58%
    18:00 +20°C° 0 mm 2 mps 769 mmHg 66%
    19:00 +19°C° 0 mm 2 mps 770 mmHg 74%
    20:00 +19°C° 0 mm 2 mps 770 mmHg 78%
    21:00 +18°C° 0 mm 2 mps 769 mmHg 82%
    22:00 +18°C° 0 mm 2 mps 769 mmHg 85%
    23:00 +18°C° 0 mm 2 mps 769 mmHg 87%

    Day after tomorrow, 23 October, Monday

    Time Temperature Precipitation Wind Pressure Humidity
    00:00 +18°C° 0 mm 2 mps 769 mmHg 89%
    01:00 +18°C° 0 mm 2 mps 769 mmHg 90%
    02:00 +19°C° 0 mm 1 mps 769 mmHg 91%
    03:00 +18°C° 0 mm 1 mps 768 mmHg 91%
    04:00 +18°C° 0 mm 1 mps 768 mmHg 92%
    05:00 +19°C° 0 mm 1 mps 768 mmHg 91%
    06:00 +19°C° 0 mm 1 mps 768 mmHg 90%
    07:00 +19°C° 0 mm 1 mps 768 mmHg 89%
    08:00 +20°C° 0 mm 2 mps 767 mmHg 81%
    09:00 +21°C° 0 mm 3 mps 767 mmHg 73%
    10:00 +23°C° 0 mm 4 mps 767 mmHg 64%
    11:00 +23°C° 0 mm 4 mps 766 mmHg 63%
    12:00 +25°C° 0 mm 4 mps 765 mmHg 62%
    13:00 +25°C° 0 mm 4 mps 764 mmHg 61%
    14:00 +25°C° 0 mm 4 mps 764 mmHg 64%
    15:00 +23°C° 0 mm 4 mps 763 mmHg 68%
    16:00 +23°C° 0 mm 4 mps 762 mmHg 71%
    17:00 +22°C° 0 mm 4 mps 762 mmHg 74%
    18:00 +22°C° 0 mm 4 mps 762 mmHg 76%
    19:00 +21°C° 0 mm 5 mps 761 mmHg 79%
    20:00 +21°C° 0 mm 5 mps 761 mmHg 79%
    21:00 +21°C° 0 mm 5 mps 760 mmHg 80%
    22:00 +22°C° 0 mm 5 mps 759 mmHg 80%
    23:00 +22°C° 0.1 mm 6 mps 759 mmHg 79%

    24 October, Tuesday

    Time Temperature Precipitation Wind Pressure Humidity
    00:00 +22°C° 0.1 mm 6 mps 758 mmHg 77%
    01:00 +22°C° 0.1 mm 7 mps 757 mmHg 76%
    02:00 +22°C° 1.4 mm 7 mps 756 mmHg 79%
    03:00 +22°C° 1.4 mm 7 mps 756 mmHg 81%
    04:00 +22°C° 1.4 mm 8 mps 755 mmHg 83%
    05:00 +22°C° 3.6 mm 7 mps 755 mmHg 84%
    06:00 +21°C° 3.6 mm 5 mps 755 mmHg 86%
    07:00 +21°C° 3.6 mm 4 mps 755 mmHg 87%
    08:00 +21°C° 0.3 mm 3 mps 755 mmHg 81%
    09:00 +22°C° 0.3 mm 3 mps 755 mmHg 75%
    10:00 +23°C° 0.3 mm 2 mps 756 mmHg 69%
    11:00 +24°C° 0.3 mm 2 mps 755 mmHg 68%
    12:00 +24°C° 0.3 mm 3 mps 755 mmHg 67%
    13:00 +25°C° 0.3 mm 3 mps 754 mmHg 66%
    14:00 +24°C° 0.2 mm 3 mps 754 mmHg 68%
    15:00 +24°C° 0.2 mm 3 mps 753 mmHg 71%
    16:00 +24°C° 0.2 mm 3 mps 753 mmHg 74%
    17:00 +22°C° 0.3 mm 3 mps 753 mmHg 78%
    18:00 +21°C° 0.3 mm 2 mps 753 mmHg 82%
    19:00 +21°C° 0.3 mm 2 mps 753 mmHg 87%
    20:00 +20°C° 0.1 mm 2 mps 753 mmHg 87%
    21:00 +21°C° 0.1 mm 1 mps 753 mmHg 88%
    22:00 +20°C° 0.1 mm 1 mps 753 mmHg 88%
    23:00 +19°C° 0 mm 2 mps 753 mmHg 86%

    25 October, Wednesday

    Time Temperature Precipitation Wind Pressure Humidity
    00:00 +18°C° 0 mm 2 mps 752 mmHg 83%
    01:00 +18°C° 0 mm 2 mps 752 mmHg 81%
    02:00 +17°C° 0 mm 2 mps 752 mmHg 80%
    03:00 +17°C° 0 mm 2 mps 752 mmHg 79%
    04:00 +16°C° 0 mm 2 mps 752 mmHg 78%
    05:00 +16°C° 0 mm 2 mps 752 mmHg 77%
    06:00 +15°C° 0 mm 2 mps 752 mmHg 76%
    07:00 +15°C° 0 mm 2 mps 752 mmHg 75%
    08:00 +16°C° 0 mm 2 mps 752 mmHg 70%
    09:00 +17°C° 0 mm 3 mps 752 mmHg 65%
    10:00 +18°C° 0 mm 3 mps 752 mmHg 59%
    11:00 +19°C° 0 mm 3 mps 751 mmHg 55%
    12:00 +19°C° 0 mm 3 mps 751 mmHg 51%
    13:00 +20°C° 0 mm 3 mps 750 mmHg 47%
    14:00 +20°C° 0 mm 3 mps 750 mmHg 48%
    15:00 +19°C° 0 mm 3 mps 750 mmHg 49%
    16:00 +19°C° 0 mm 3 mps 750 mmHg 50%
    17:00 +17°C° 0 mm 3 mps 751 mmHg 54%
    18:00 +16°C° 0 mm 3 mps 751 mmHg 58%
    19:00 +13°C° 0 mm 3 mps 752 mmHg 63%
    20:00 +13°C° 0 mm 3 mps 752 mmHg 61%
    21:00 +13°C° 0 mm 3 mps 752 mmHg 59%
    22:00 +12°C° 0 mm 3 mps 752 mmHg 57%
    23:00 +12°C° 0 mm 3 mps 752 mmHg 58%

    26 October, Thursday

    Time Temperature Precipitation Wind Pressure Humidity
    00:00 +11°C° 0 mm 3 mps 752 mmHg 59%
    01:00 +10°C° 0 mm 3 mps 752 mmHg 60%
    02:00 +10°C° 0 mm 3 mps 753 mmHg 62%
    03:00 +9°C° 0 mm 3 mps 753 mmHg 64%
    04:00 +9°C° 0 mm 3 mps 753 mmHg 66%
    05:00 +8°C° 0 mm 3 mps 754 mmHg 68%
    06:00 +8°C° 0 mm 3 mps 754 mmHg 70%
    07:00 +8°C° 0 mm 3 mps 755 mmHg 72%
    08:00 +9°C° 0 mm 3 mps 755 mmHg 67%
    09:00 +11°C° 0 mm 4 mps 755 mmHg 61%
    10:00 +13°C° 0 mm 5 mps 756 mmHg 56%
    11:00 +13°C° 0 mm 5 mps 756 mmHg 53%
    12:00 +14°C° 0 mm 5 mps 756 mmHg 50%
    13:00 +15°C° 0 mm 6 mps 756 mmHg 47%
    14:00 +15°C° 0 mm 5 mps 756 mmHg 47%
    15:00 +15°C° 0 mm 5 mps 757 mmHg 48%
    16:00 +14°C° 0 mm 5 mps 757 mmHg 49%
    17:00 +14°C° 0 mm 4 mps 758 mmHg 52%
    18:00 +13°C° 0 mm 4 mps 759 mmHg 54%
    19:00 +12°C° 0 mm 3 mps 759 mmHg 57%
    20:00 +11°C° 0 mm 3 mps 760 mmHg 59%
    21:00 +11°C° 0 mm 3 mps 760 mmHg 60%
    22:00 +10°C° 0 mm 3 mps 760 mmHg 62%
    23:00 +10°C° 0 mm 3 mps 761 mmHg 63%
    Show more